sat.trackr.live / text

‹ back to catalog

STARLINK-4261

NORAD 52868 · 2022-062AQ

PAYLOAD ACTIVE UNKNOWN

§ Identity

Operator
Country
US
Launch date
2022-06-17
Launch site
AFETR
Launch vehicle
Mass (kg)
RCS (m²)

Purposes: comms

External: N2YO · Heavens-Above · Gunter

§ Orbital elements

Epoch: 2026-05-24T23:13:19.776000Z

Period
95.44 min
Inclination
53.2143°
Eccentricity
0.0001291
Mean motion
15.08839959 rev/d
Perigee alt
538.9 km
Apogee alt
540.6 km
Semi-major
6,917.9 km
B*
6.1050e-5
RAAN
41.7255°
Arg perigee
90.1408°
Mean anomaly
269.9732°
Rev number
21,744

§ Raw data

STARLINK-42611 52868U 22062AQ  26144.96759000  .00000684  00000+0  61050-4 0  99972 52868  53.2143  41.7255 0001291  90.1408 269.9732 15.08839959217441

JSON: /api/v1/satellites/52868 · /tle

For live sub-satellite position, see the globe view (requires WebGL).

§ Visibility from observer

Set your observer location to see the next 7 days of passes ≥ 10°. The values pass through the URL so the page stays shareable.

No JS? Fill the form by hand. The geolocation button needs JavaScript.